Location: Newark
(48.1236°N, 0.7169°W)
Time: 10:22:40
(UTC+00:00)

Envisat - Pass Details

Date: 24 November 2019
Orbit: 764 x 766 km, 98.1° (Epoch: 06 December)

Event Time Altitude Azimuth Distance (km) Brightness Sun altitude
Rises 17:30:41 0° 153° (SSE) 3,220 6.1 -12.1°
Reaches altitude 10° 17:33:00 10° 150° (SSE) 2,298 5.3 -12.5°
Maximum altitude 17:37:58 61° 71° (ENE) 871 3.0 -13.3°
Drops below altitude 10° 17:42:59 10° 353° (N) 2,314 5.4 -14.1°
Sets 17:45:19 0° 350° (N) 3,244 6.2 -14.5°
